EW7191 Weather Reports


Display with metric or nautical units.
time (UTC)temp
F
wind
direction
speed
MPH
gust
MPH
rain 1hr
in
rain 24hr
in
rain mn
in
humidity
%
barometer
mb
20260509053028 57 126 0.0 0.0 0.00 0.00 0.00 70 1025.8
20260509051527 59 126 0.0 0.0 0.00 0.00 0.00 67 1025.6
20260509050029 60 158 0.0 0.0 0.00 0.00 0.00 65 1025.4
20260509044526 62 158 0.0 0.0 0.00 0.00 0.00 59 1025.4
20260509043025 62 127 0.0 0.0 0.00 0.00 0.00 62 1024.9
20260509041525 63 127 0.0 0.0 0.00 0.00 0.00 59 1024.7
20260509040035 64 247 0.0 0.0 0.00 0.00 0.00 58 1024.6
20260509034525 65 319 0.0 0.0 0.00 0.00 0.00 55 1024.5
20260509033024 66 328 0.0 0.0 0.00 0.00 0.00 55 1024.5
20260509031528 67 169 0.0 0.0 0.00 0.00 0.00 54 1024.2
20260509030023 69 319 0.0 0.0 0.00 0.00 0.00 52 1023.9
20260509024523 70 331 0.0 0.0 0.00 0.00 0.00 52 1023.7
20260509023025 71 221 0.0 0.0 0.00 0.00 0.00 50 1023.6
20260509021522 72 323 0.0 1.0 0.00 0.00 0.00 49 1023.5
20260509020021 73 329 0.0 1.0 0.00 0.00 0.00 47 1023.4
20260509014534 74 293 0.0 3.0 0.00 0.00 0.00 44 1023.2
20260509013023 75 266 0.0 4.0 0.00 0.00 0.00 40 1023.0
20260509011520 77 319 0.0 4.0 0.00 0.00 0.00 39 1023.0
20260509010019 78 304 0.0 1.0 0.00 0.00 0.00 38 1022.9
20260509004519 79 311 0.0 1.0 0.00 0.00 0.00 37 1023.0
20260509003017 79 8 0.0 0.0 0.00 0.00 0.00 39 1022.9
20260509001517 80 68 0.0 1.0 0.00 0.00 0.00 37 1022.9
20260509000016 80 90 0.0 1.0 0.00 0.00 0.00 37 1022.9
20260508234517 80 296 0.0 3.0 0.00 0.00 0.00 36 1023.0
20260508233016 80 318 0.0 1.0 0.00 0.00 0.00 32 1023.1
20260508231515 81 307 0.0 0.0 0.00 0.00 0.00 33 1023.1
20260508230012 80 46 0.0 0.0 0.00 0.00 0.00 29 1023.3
20260508224511 80 307 0.0 0.0 0.00 0.00 0.00 30 1023.5
20260508223011 80 37 0.0 1.0 0.00 0.00 0.00 29 1023.6
20260508221509 79 202 0.0 1.0 0.00 0.00 0.00 31 1023.8
20260508220027 79 255 0.0 0.0 0.00 0.00 0.00 28 1023.8
20260508214507 79 328 0.0 0.0 0.00 0.00 0.00 33 1023.9
20260508213009 77 248 0.0 1.0 0.00 0.00 0.00 33 1024.1
20260508211504 78 4 0.0 2.0 0.00 0.00 0.00 31 1024.3
20260508210004 77 269 0.0 0.0 0.00 0.00 0.00 31 1024.3
20260508204502 77 283 0.0 1.0 0.00 0.00 0.00 29 1024.4
20260508203058 76 163 0.0 1.0 0.00 0.00 0.00 28 1024.5
20260508201557 76 160 0.0 0.0 0.00 0.00 0.00 27 1024.6
20260508200100 75 205 0.0 0.0 0.00 0.00 0.00 28 1024.6
20260508194553 74 128 0.0 0.0 0.00 0.00 0.00 27 1024.8
20260508193057 74 314 0.0 0.0 0.00 0.00 0.00 33 1025.0
20260508191549 73 75 0.0 0.0 0.00 0.00 0.00 33 1025.2
20260508190103 73 359 0.0 0.0 0.00 0.00 0.00 31 1025.4
20260508184549 72 7 0.0 0.0 0.00 0.00 0.00 36 1025.4
20260508183044 70 294 0.0 0.0 0.00 0.00 0.00 41 1025.4
20260508181557 69 123 0.0 0.0 0.00 0.00 0.00 42 1025.6
20260508180038 68 302 0.0 0.0 0.00 0.00 0.00 49 1025.6
20260508174539 67 222 0.0 0.0 0.00 0.00 0.00 50 1025.6
20260508173030 66 82 0.0 0.0 0.00 0.00 0.00 53 1025.8
20260508171528 65 269 0.0 0.0 0.00 0.00 0.00 55 1025.8
20260508170026 64 288 0.0 0.0 0.00 0.00 0.00 60 1025.7
20260508164523 63 259 0.0 0.0 0.00 0.00 0.00 67 1025.7
20260508163033 61 251 0.0 0.0 0.00 0.00 0.00 62 1025.8
20260508161528 62 262 0.0 0.0 0.00 0.00 0.00 66 1025.8
20260508160015 60 275 0.0 0.0 0.00 0.00 0.00 67 1026.0
20260508154515 60 298 0.0 0.0 0.00 0.00 0.00 65 1026.0
20260508153013 58 272 0.0 0.0 0.00 0.00 0.00 69 1025.9
20260508151507 55 90 0.0 0.0 0.00 0.00 0.00 75 1025.9
20260508150005 53 90 0.0 0.0 0.00 0.00 0.00 79 1026.0
20260508144608 51 91 0.0 0.0 0.00 0.00 0.00 83 1026.0
20260508143101 50 90 0.0 0.0 0.00 0.00 0.00 84 1025.9
20260508141601 48 91 0.0 0.0 0.00 0.00 0.00 88 1025.6
20260508140100 46 91 0.0 0.0 0.00 0.00 0.00 90 1025.4
20260508134606 44 91 0.0 0.0 0.00 0.00 0.00 90 1025.2
20260508133053 44 91 0.0 0.0 0.00 0.00 0.00 89 1025.1
20260508131551 44 91 0.0 0.0 0.00 0.00 0.00 89 1024.8
20260508130049 44 91 0.0 0.0 0.00 0.00 0.00 88 1024.8
20260508124546 45 91 0.0 0.0 0.00 0.00 0.00 86 1024.7
20260508123052 46 91 0.0 0.0 0.00 0.00 0.00 85 1024.4
20260508121544 46 91 0.0 0.0 0.00 0.00 0.00 83 1024.4
20260508120045 46 79 0.0 0.0 0.00 0.00 0.00 84 1024.5
20260508114548 46 79 0.0 0.0 0.00 0.00 0.00 83 1024.4
20260508113040 46 79 0.0 0.0 0.00 0.00 0.00 83 1024.2
20260508111542 46 79 0.0 0.0 0.00 0.00 0.00 84 1023.9
20260508110033 46 79 0.0 0.0 0.00 0.00 0.00 84 1023.7
20260508104532 47 79 0.0 0.0 0.00 0.00 0.00 83 1023.6
20260508103036 47 91 0.0 0.0 0.00 0.00 0.00 83 1023.7
20260508101529 47 91 0.0 0.0 0.00 0.00 0.00 85 1023.6
20260508100027 47 91 0.0 0.0 0.00 0.00 0.00 86 1023.6
20260508094524 48 91 0.0 0.0 0.00 0.00 0.00 87 1023.4
20260508093021 49 91 0.0 0.0 0.00 0.00 0.00 87 1023.4
20260508091518 50 91 0.0 0.0 0.00 0.00 0.00 85 1023.3
20260508090020 51 91 0.0 0.0 0.00 0.00 0.00 86 1023.2
20260508084512 51 98 0.0 0.0 0.00 0.00 0.00 88 1022.9
20260508083010 51 98 0.0 0.0 0.00 0.00 0.00 88 1022.8
20260508081524 52 98 0.0 0.0 0.00 0.00 0.00 87 1022.8
20260508080009 52 98 0.0 0.0 0.00 0.00 0.00 87 1022.8
20260508074505 53 113 0.0 0.0 0.00 0.00 0.00 86 1022.9
20260508073003 53 113 0.0 0.0 0.00 0.00 0.00 86 1022.8
20260508071502 53 113 0.0 0.0 0.00 0.00 0.00 85 1022.8
20260508070059 54 113 0.0 0.0 0.00 0.00 0.00 83 1022.8
20260508064558 54 113 0.0 0.0 0.00 0.00 0.00 82 1022.7
20260508063106 55 99 0.0 0.0 0.00 0.00 0.00 82 1022.8
20260508061558 55 99 0.0 0.0 0.00 0.00 0.00 81 1022.8
20260508060100 56 99 0.0 0.0 0.00 0.00 0.00 80 1022.6
20260508054556 57 254 0.0 0.0 0.00 0.00 0.00 79 1022.4